This is the latest recevied weather packets stored in our database for station/object DL4YM-13. If no packets are shown the sender has not sent any weather packets the latest 10 day(s).
| Time | Temp. | Humidity | Pressure | Rain* | Wind** | Luminosity | Snow |
|---|---|---|---|---|---|---|---|
| 1777795526 | 18.89° C | 57% | 996.4 hPa | - | - | - | - |
| 1777794926 | 17.78° C | 62% | 996.5 hPa | - | - | - | - |
| 1777794327 | 16.67° C | 67% | 996.4 hPa | - | - | - | - |
| 1777793726 | 16.67° C | 67% | 996.4 hPa | - | - | - | - |
| 1777793126 | 16.67° C | 67% | 996.4 hPa | - | - | - | - |
| 1777792527 | 16.67° C | 67% | 996.4 hPa | - | - | - | - |
| 1777791927 | 15.56° C | 80% | 996.5 hPa | - | - | - | - |
| 1777791326 | 15° C | 88% | 996.5 hPa | - | - | - | - |
| 1777790726 | 13.89° C | 95% | 996.6 hPa | - | - | - | - |
| 1777790126 | 12.78° C | 98% | 996.5 hPa | - | - | - | - |
| 1777789525 | 12.78° C | 98% | 996.5 hPa | - | - | - | - |
| 1777788926 | 12.78° C | 98% | 996.5 hPa | - | - | - | - |
| 1777788326 | 12.22° C | 10% | 996.3 hPa | - | - | - | - |
| 1777787725 | 12.22° C | 10% | 996.3 hPa | - | - | - | - |
| 1777787125 | 12.22° C | 10% | 996.3 hPa | - | - | - | - |
| 1777786527 | 11.67° C | 10% | 996.4 hPa | - | - | - | - |
| 1777785926 | 11.67° C | 10% | 996.4 hPa | - | - | - | - |
| 1777785326 | 11.67° C | 10% | 996.5 hPa | - | - | - | - |
| 1777784726 | 11.11° C | 10% | 996.5 hPa | - | - | - | - |
| 1777784126 | 11.11° C | 10% | 996.5 hPa | - | - | - | - |
| 1777783526 | 11.11° C | 10% | 996.5 hPa | - | - | - | - |
| 1777782926 | 11.11° C | 10% | 996.6 hPa | - | - | - | - |
| 1777782325 | 11.11° C | 10% | 996.6 hPa | - | - | - | - |
| 1777781726 | 11.11° C | 10% | 996.6 hPa | - | - | - | - |
| 1777781125 | 11.11° C | 10% | 996.8 hPa | - | - | - | - |
* Rain since midnight (hover to see other rain measurements)
** Current wind speed in m/s (hover to see current wind gust speed)